Time,TemperatureF,DewpointF,PressureIn,WindDirection,WindDirectionDegrees,WindSpeedMPH,WindSpeedGustMPH,Humidity,HourlyPrecipIn,Conditions,Clouds,dailyrainin,SoftwareType,DateUTC
2013-11-27 00:00:00,48.0,37.6,30.04,SE,143,0.0,4.0,67,0.00,,---,0.00,VWS V13.01,2013-11-27 08:00:00,
2013-11-27 00:30:00,47.5,37.8,30.02,SE,146,0.0,2.0,69,0.00,,---,0.00,VWS V13.01,2013-11-27 08:30:00,
2013-11-27 01:00:00,46.9,37.3,30.05,South,169,3.0,5.0,69,0.00,,---,0.00,VWS V13.01,2013-11-27 09:00:00,
2013-11-27 01:30:00,47.0,37.7,30.02,SSE,168,0.0,4.0,70,0.00,,---,0.00,VWS V13.01,2013-11-27 09:30:00,
2013-11-27 02:01:00,45.8,37.0,30.03,SSE,167,0.0,2.0,71,0.00,,---,0.00,VWS V13.01,2013-11-27 10:01:00,
2013-11-27 02:30:00,45.2,36.0,30.01,SSE,167,0.0,2.0,70,0.00,,---,0.00,VWS V13.01,2013-11-27 10:30:00,
2013-11-27 03:00:00,46.1,35.4,30.00,ESE,108,0.0,4.0,66,0.00,,---,0.00,VWS V13.01,2013-11-27 11:00:00,
2013-11-27 03:30:00,44.9,35.0,30.00,ESE,108,1.0,2.0,68,0.00,,---,0.00,VWS V13.01,2013-11-27 11:30:00,
2013-11-27 04:01:00,44.4,35.2,29.98,ESE,109,0.0,3.0,70,0.00,,---,0.00,VWS V13.01,2013-11-27 12:01:00,
2013-11-27 04:30:00,44.7,35.9,29.99,NNE,21,3.0,5.0,71,0.00,,---,0.00,VWS V13.01,2013-11-27 12:30:00,
2013-11-27 05:00:00,43.9,36.5,29.99,SE,144,2.0,6.0,75,0.00,,---,0.00,VWS V13.01,2013-11-27 13:00:00,
2013-11-27 05:30:00,42.6,36.2,29.98,NW,316,0.0,5.0,78,0.00,,---,0.00,VWS V13.01,2013-11-27 13:30:00,
2013-11-27 06:00:00,43.1,36.1,29.97,NNW,348,2.0,6.0,76,0.00,,---,0.00,VWS V13.01,2013-11-27 14:00:00,
2013-11-27 06:30:00,42.6,34.6,29.98,North,350,0.0,5.0,73,0.00,,---,0.00,VWS V13.01,2013-11-27 14:30:00,
2013-11-27 07:00:00,42.6,35.6,30.00,NNW,346,0.0,4.0,76,0.00,,---,0.00,VWS V13.01,2013-11-27 15:00:00,
2013-11-27 07:30:00,43.6,37.2,30.01,NNW,346,0.0,2.0,78,0.00,,---,0.00,VWS V13.01,2013-11-27 15:30:00,
2013-11-27 08:00:00,45.9,38.8,30.00,NNW,346,0.0,0.0,76,0.00,,---,0.00,VWS V13.01,2013-11-27 16:00:00,
2013-11-27 08:30:00,48.3,39.3,30.02,NNW,346,0.0,0.0,71,0.00,,---,0.00,VWS V13.01,2013-11-27 16:30:00,
2013-11-27 09:00:00,48.9,39.9,30.00,North,351,0.0,1.0,71,0.00,,---,0.00,VWS V13.01,2013-11-27 17:00:00,
2013-11-27 09:30:00,51.7,40.3,29.99,North,0,0.0,4.0,65,0.00,,---,0.00,VWS V13.01,2013-11-27 17:30:00,
2013-11-27 10:00:00,53.3,40.6,30.00,North,0,0.0,5.0,62,0.00,,---,0.00,VWS V13.01,2013-11-27 18:00:00,
2013-11-27 10:30:00,57.2,41.2,29.96,NNE,19,4.0,9.0,55,0.00,,---,0.00,VWS V13.01,2013-11-27 18:30:00,
2013-11-27 11:00:00,59.4,35.7,29.94,ENE,72,11.0,15.0,41,0.00,,---,0.00,VWS V13.01,2013-11-27 19:00:00,
2013-11-27 11:30:00,59.5,35.8,29.94,NNE,19,0.0,15.0,41,0.00,,---,0.00,VWS V13.01,2013-11-27 19:30:00,
2013-11-27 12:01:00,59.8,36.1,29.93,East,83,0.0,0.0,41,0.00,,---,0.00,VWS V13.01,2013-11-27 20:01:00,
2013-11-27 12:30:00,61.3,36.8,29.91,NE,34,0.0,0.0,40,0.00,,---,0.00,VWS V13.01,2013-11-27 20:30:00,
2013-11-27 13:00:00,60.4,37.2,29.91,NE,35,0.0,0.0,42,0.00,,---,0.00,VWS V13.01,2013-11-27 21:00:00,
2013-11-27 13:30:00,61.3,38.0,29.90,NNW,347,0.0,0.0,42,0.00,,---,0.00,VWS V13.01,2013-11-27 21:30:00,
2013-11-27 14:00:00,61.2,35.4,29.89,NNE,24,0.0,0.0,38,0.00,,---,0.00,VWS V13.01,2013-11-27 22:00:00,
2013-11-27 14:30:00,61.6,35.8,29.88,East,101,0.0,0.0,38,0.00,,---,0.00,VWS V13.01,2013-11-27 22:30:00,
2013-11-27 15:00:00,61.1,35.3,29.86,NNE,27,0.0,0.0,38,0.00,,---,0.00,VWS V13.01,2013-11-27 23:00:00,
2013-11-27 15:30:00,60.9,33.8,29.86,WNW,300,0.0,0.0,36,0.00,,---,0.00,VWS V13.01,2013-11-27 23:30:00,
2013-11-27 16:00:00,60.3,33.3,29.86,SW,231,0.0,0.0,36,0.00,,---,0.00,VWS V13.01,2013-11-28 00:00:00,
2013-11-27 16:30:00,58.9,33.4,29.88,North,354,0.0,0.0,38,0.00,,---,0.00,VWS V13.01,2013-11-28 00:30:00,
2013-11-27 17:00:00,56.8,35.1,29.87,NNW,345,3.0,9.0,44,0.00,,---,0.00,VWS V13.01,2013-11-28 01:00:00,
2013-11-27 17:30:00,55.2,35.3,29.87,North,355,5.0,9.0,47,0.00,,---,0.00,VWS V13.01,2013-11-28 01:30:00,
2013-11-27 18:00:00,54.6,33.1,29.88,WNW,286,5.0,9.0,44,0.00,,---,0.00,VWS V13.01,2013-11-28 02:00:00,
2013-11-27 18:30:00,54.2,32.2,29.89,North,4,4.0,11.0,43,0.00,,---,0.00,VWS V13.01,2013-11-28 02:30:00,
2013-11-27 19:00:00,53.4,32.0,29.89,NNW,336,7.0,12.0,44,0.00,,---,0.00,VWS V13.01,2013-11-28 03:00:00,
2013-11-27 19:30:00,54.0,32.6,29.88,NNW,347,8.0,15.0,44,0.00,,---,0.00,VWS V13.01,2013-11-28 03:30:00,
2013-11-27 20:00:00,52.6,33.5,29.89,NW,308,3.0,11.0,48,0.00,,---,0.00,VWS V13.01,2013-11-28 04:00:00,
2013-11-27 20:30:00,51.1,34.1,29.89,NW,313,6.0,10.0,52,0.00,,---,0.00,VWS V13.01,2013-11-28 04:30:00,
2013-11-27 21:00:00,51.1,33.6,29.90,NNW,332,4.0,9.0,51,0.00,,---,0.00,VWS V13.01,2013-11-28 05:00:00,
2013-11-27 21:30:00,50.5,33.1,29.88,NNW,331,9.0,10.0,51,0.00,,---,0.00,VWS V13.01,2013-11-28 05:30:00,
2013-11-27 22:01:00,50.2,33.7,29.90,NW,304,5.0,12.0,53,0.00,,---,0.00,VWS V13.01,2013-11-28 06:01:00,
2013-11-27 22:30:00,50.0,33.6,29.88,NW,312,5.0,12.0,53,0.00,,---,0.00,VWS V13.01,2013-11-28 06:30:00,
2013-11-27 23:00:00,49.9,33.9,29.88,WNW,302,5.0,12.0,54,0.00,,---,0.00,VWS V13.01,2013-11-28 07:00:00,
2013-11-27 23:30:00,49.6,34.1,29.86,NW,309,4.0,11.0,55,0.00,,---,0.00,VWS V13.01,2013-11-28 07:30:00,